Year,Month,Day,Hour,Minute,Value (Times are PST for windgust in km/hr)
2004,07,05,00,00,9.70
2004,07,05,00,01,7.90
2004,07,05,00,02,0.00
2004,07,05,00,03,4.70
2004,07,05,00,04,7.90
2004,07,05,00,05,7.90
2004,07,05,00,06,4.70
2004,07,05,00,07,0.00
2004,07,05,00,08,1.40
2004,07,05,00,09,3.20
2004,07,05,00,10,4.70
2004,07,05,00,11,4.70
2004,07,05,00,12,9.70
2004,07,05,00,13,4.70
2004,07,05,00,14,4.70
2004,07,05,00,15,7.90
2004,07,05,00,16,4.70
2004,07,05,00,17,7.90
2004,07,05,00,18,4.70
2004,07,05,00,19,4.70
2004,07,05,00,20,7.90
2004,07,05,00,21,4.70
2004,07,05,00,22,3.20
2004,07,05,00,23,1.40
2004,07,05,00,24,3.20
2004,07,05,00,25,3.20
2004,07,05,00,26,3.20
2004,07,05,00,27,1.40
2004,07,05,00,28,7.90
2004,07,05,00,29,1.40
2004,07,05,00,30,7.90
2004,07,05,00,31,1.40
2004,07,05,00,32,3.20
2004,07,05,00,33,3.20
2004,07,05,00,34,1.40
2004,07,05,00,35,3.20
2004,07,05,00,36,3.20
2004,07,05,00,37,1.40
2004,07,05,00,38,3.20
2004,07,05,00,39,7.90
2004,07,05,00,40,3.20
2004,07,05,00,41,3.20
2004,07,05,00,42,1.40
2004,07,05,00,43,4.70
2004,07,05,00,44,4.70
2004,07,05,00,45,7.90
2004,07,05,00,46,9.70
2004,07,05,00,47,7.90
2004,07,05,00,48,4.70
2004,07,05,00,49,3.20
2004,07,05,00,50,9.70
2004,07,05,00,51,4.70
2004,07,05,00,52,7.90
2004,07,05,00,53,3.20
2004,07,05,00,54,4.70
2004,07,05,00,55,4.70
2004,07,05,00,56,3.20
2004,07,05,00,57,4.70
2004,07,05,00,58,0.00
2004,07,05,00,59,1.40
2004,07,05,01,00,1.40
2004,07,05,01,01,3.20
2004,07,05,01,02,1.40
2004,07,05,01,03,4.70
2004,07,05,01,04,1.40
2004,07,05,01,05,1.40
2004,07,05,01,06,1.40
2004,07,05,01,07,3.20
2004,07,05,01,08,1.40
2004,07,05,01,09,4.70
2004,07,05,01,10,7.90
2004,07,05,01,11,1.40
2004,07,05,01,12,0.00
2004,07,05,01,13,4.70
2004,07,05,01,14,3.20
2004,07,05,01,15,1.40
2004,07,05,01,16,3.20
2004,07,05,01,17,1.40
2004,07,05,01,18,1.40
2004,07,05,01,19,1.40
2004,07,05,01,20,3.20
2004,07,05,01,21,7.90
2004,07,05,01,22,1.40
2004,07,05,01,23,3.20
2004,07,05,01,24,3.20
2004,07,05,01,25,0.00
2004,07,05,01,26,1.40
2004,07,05,01,27,7.90
2004,07,05,01,28,4.70
2004,07,05,01,29,4.70
2004,07,05,01,30,1.40
2004,07,05,01,31,1.40
2004,07,05,01,32,1.40
2004,07,05,01,33,4.70
2004,07,05,01,34,3.20
2004,07,05,01,35,1.40
2004,07,05,01,36,4.70
2004,07,05,01,37,1.40
2004,07,05,01,38,4.70
2004,07,05,01,39,1.40
2004,07,05,01,40,3.20
2004,07,05,01,41,1.40
2004,07,05,01,42,3.20
2004,07,05,01,43,3.20
2004,07,05,01,44,3.20
2004,07,05,01,45,1.40
2004,07,05,01,46,1.40
2004,07,05,01,47,0.00
2004,07,05,01,48,1.40
2004,07,05,01,49,1.40
2004,07,05,01,50,1.40
2004,07,05,01,51,1.40
2004,07,05,01,52,0.00
2004,07,05,01,53,1.40
2004,07,05,01,54,3.20
2004,07,05,01,55,3.20
2004,07,05,01,56,4.70
2004,07,05,01,57,4.70
2004,07,05,01,58,4.70
2004,07,05,01,59,1.40
2004,07,05,02,00,7.90
2004,07,05,02,01,4.70
2004,07,05,02,02,4.70
2004,07,05,02,03,7.90
2004,07,05,02,04,4.70
2004,07,05,02,05,1.40
2004,07,05,02,06,1.40
2004,07,05,02,07,4.70
2004,07,05,02,08,3.20
2004,07,05,02,09,1.40
2004,07,05,02,10,1.40
2004,07,05,02,11,4.70
2004,07,05,02,12,3.20
2004,07,05,02,13,7.90
2004,07,05,02,14,4.70
2004,07,05,02,15,1.40
2004,07,05,02,16,4.70
2004,07,05,02,17,3.20
2004,07,05,02,18,3.20
2004,07,05,02,19,1.40
2004,07,05,02,20,1.40
2004,07,05,02,21,7.90
2004,07,05,02,22,1.40
2004,07,05,02,23,1.40
2004,07,05,02,24,0.00
2004,07,05,02,25,3.20
2004,07,05,02,26,1.40
2004,07,05,02,27,3.20
2004,07,05,02,28,1.40
2004,07,05,02,29,4.70
2004,07,05,02,30,1.40
2004,07,05,02,31,3.20
2004,07,05,02,32,3.20
2004,07,05,02,33,1.40
2004,07,05,02,34,1.40
2004,07,05,02,35,3.20
2004,07,05,02,36,1.40
2004,07,05,02,37,1.40
2004,07,05,02,38,1.40
2004,07,05,02,39,3.20
2004,07,05,02,40,4.70
2004,07,05,02,41,3.20
2004,07,05,02,42,4.70
2004,07,05,02,43,4.70
2004,07,05,02,44,3.20
2004,07,05,02,45,3.20
2004,07,05,02,46,3.20
2004,07,05,02,47,4.70
2004,07,05,02,48,3.20
2004,07,05,02,49,0.00
2004,07,05,02,50,3.20
2004,07,05,02,51,4.70
2004,07,05,02,52,1.40
2004,07,05,02,53,7.90
2004,07,05,02,54,3.20
2004,07,05,02,55,7.90
2004,07,05,02,56,7.90
2004,07,05,02,57,3.20
2004,07,05,02,58,3.20
2004,07,05,02,59,4.70
2004,07,05,03,00,7.90
2004,07,05,03,01,3.20
2004,07,05,03,02,4.70
2004,07,05,03,03,3.20
2004,07,05,03,04,3.20
2004,07,05,03,05,4.70
2004,07,05,03,06,1.40
2004,07,05,03,07,1.40
2004,07,05,03,08,1.40
2004,07,05,03,09,4.70
2004,07,05,03,10,3.20
2004,07,05,03,11,1.40
2004,07,05,03,12,3.20
2004,07,05,03,13,1.40
2004,07,05,03,14,3.20
2004,07,05,03,15,3.20
2004,07,05,03,16,3.20
2004,07,05,03,17,3.20
2004,07,05,03,18,3.20
2004,07,05,03,19,3.20
2004,07,05,03,20,3.20
2004,07,05,03,21,3.20
2004,07,05,03,22,1.40
2004,07,05,03,23,0.00
2004,07,05,03,24,0.00
2004,07,05,03,25,0.00
2004,07,05,03,26,1.40
2004,07,05,03,27,1.40
2004,07,05,03,28,1.40
2004,07,05,03,29,0.00
2004,07,05,03,30,1.40
2004,07,05,03,31,3.20
2004,07,05,03,32,0.00
2004,07,05,03,33,1.40
2004,07,05,03,34,0.00
2004,07,05,03,35,0.00
2004,07,05,03,36,1.40
2004,07,05,03,37,1.40
2004,07,05,03,38,3.20
2004,07,05,03,39,1.40
2004,07,05,03,40,1.40
2004,07,05,03,41,0.00
2004,07,05,03,42,1.40
2004,07,05,03,43,1.40
2004,07,05,03,44,1.40
2004,07,05,03,45,0.00
2004,07,05,03,46,1.40
2004,07,05,03,47,1.40
2004,07,05,03,48,0.00
2004,07,05,03,49,0.00
2004,07,05,03,50,0.00
2004,07,05,03,51,0.00
2004,07,05,03,52,1.40
2004,07,05,03,53,1.40
2004,07,05,03,54,0.00
2004,07,05,03,55,0.00
2004,07,05,03,56,0.00
2004,07,05,03,57,0.00
2004,07,05,03,58,0.00
2004,07,05,03,59,0.00
2004,07,05,04,00,0.00
2004,07,05,04,01,0.00
2004,07,05,04,02,0.00
2004,07,05,04,03,0.00
2004,07,05,04,04,0.00
2004,07,05,04,05,0.00
2004,07,05,04,06,1.40
2004,07,05,04,07,0.00
2004,07,05,04,08,0.00
2004,07,05,04,09,0.00
2004,07,05,04,10,0.00
2004,07,05,04,11,0.00
2004,07,05,04,12,1.40
2004,07,05,04,13,0.00
2004,07,05,04,14,1.40
2004,07,05,04,15,1.40
2004,07,05,04,16,1.40
2004,07,05,04,17,1.40
2004,07,05,04,18,1.40
2004,07,05,04,19,1.40
2004,07,05,04,20,1.40
2004,07,05,04,21,3.20
2004,07,05,04,22,1.40
2004,07,05,04,23,0.00
2004,07,05,04,24,0.00
2004,07,05,04,25,1.40
2004,07,05,04,26,1.40
2004,07,05,04,27,0.00
2004,07,05,04,28,3.20
2004,07,05,04,29,0.00
2004,07,05,04,30,1.40
2004,07,05,04,31,0.00
2004,07,05,04,32,0.00
2004,07,05,04,33,0.00
2004,07,05,04,34,0.00
2004,07,05,04,35,1.40
2004,07,05,04,36,4.70
2004,07,05,04,37,1.40
2004,07,05,04,38,0.00
2004,07,05,04,39,0.00
2004,07,05,04,40,1.40
2004,07,05,04,41,0.00
2004,07,05,04,42,1.40
2004,07,05,04,43,3.20
2004,07,05,04,44,1.40
2004,07,05,04,45,1.40
2004,07,05,04,46,0.00
2004,07,05,04,47,3.20
2004,07,05,04,48,0.00
2004,07,05,04,49,1.40
2004,07,05,04,50,1.40
2004,07,05,04,51,0.00
2004,07,05,04,52,0.00
2004,07,05,04,53,0.00
2004,07,05,04,54,0.00
2004,07,05,04,55,0.00
2004,07,05,04,56,3.20
2004,07,05,04,57,1.40
2004,07,05,04,58,1.40
2004,07,05,04,59,1.40
2004,07,05,05,00,0.00
2004,07,05,05,01,0.00
2004,07,05,05,02,0.00
2004,07,05,05,03,1.40
2004,07,05,05,04,0.00
2004,07,05,05,05,0.00
2004,07,05,05,06,0.00
2004,07,05,05,07,1.40
2004,07,05,05,08,0.00
2004,07,05,05,09,0.00
2004,07,05,05,10,0.00
2004,07,05,05,11,1.40
2004,07,05,05,12,0.00
2004,07,05,05,13,1.40
2004,07,05,05,14,1.40
2004,07,05,05,15,0.00
2004,07,05,05,16,0.00
2004,07,05,05,17,0.00
2004,07,05,05,18,0.00
2004,07,05,05,19,0.00
2004,07,05,05,20,1.40
2004,07,05,05,21,0.00
2004,07,05,05,22,0.00
2004,07,05,05,23,0.00
2004,07,05,05,24,0.00
2004,07,05,05,25,0.00
2004,07,05,05,26,0.00
2004,07,05,05,27,0.00
2004,07,05,05,28,0.00
2004,07,05,05,29,1.40
2004,07,05,05,30,1.40
2004,07,05,05,31,0.00
2004,07,05,05,32,1.40
2004,07,05,05,33,0.00
2004,07,05,05,34,0.00
2004,07,05,05,35,0.00
2004,07,05,05,36,0.00
2004,07,05,05,37,0.00
2004,07,05,05,38,0.00
2004,07,05,05,39,0.00
2004,07,05,05,40,0.00
2004,07,05,05,41,0.00
2004,07,05,05,42,0.00
2004,07,05,05,43,0.00
2004,07,05,05,44,0.00
2004,07,05,05,45,0.00
2004,07,05,05,46,0.00
2004,07,05,05,47,0.00
2004,07,05,05,48,0.00
2004,07,05,05,49,0.00
2004,07,05,05,50,0.00
2004,07,05,05,51,0.00
2004,07,05,05,52,0.00
2004,07,05,05,53,0.00
2004,07,05,05,54,0.00
2004,07,05,05,55,0.00
2004,07,05,05,56,0.00
2004,07,05,05,57,0.00
2004,07,05,05,58,0.00
2004,07,05,05,59,0.00
2004,07,05,06,00,0.00
2004,07,05,06,01,0.00
2004,07,05,06,02,0.00
2004,07,05,06,03,0.00
2004,07,05,06,04,0.00
2004,07,05,06,05,0.00
2004,07,05,06,06,0.00
2004,07,05,06,07,0.00
2004,07,05,06,08,0.00
2004,07,05,06,09,0.00
2004,07,05,06,10,0.00
2004,07,05,06,11,1.40
2004,07,05,06,12,1.40
2004,07,05,06,13,0.00
2004,07,05,06,14,0.00
2004,07,05,06,15,0.00
2004,07,05,06,16,0.00
2004,07,05,06,17,0.00
2004,07,05,06,18,0.00
2004,07,05,06,19,0.00
2004,07,05,06,20,0.00
2004,07,05,06,21,0.00
2004,07,05,06,22,0.00
2004,07,05,06,23,0.00
2004,07,05,06,24,0.00
2004,07,05,06,25,0.00
2004,07,05,06,26,0.00
2004,07,05,06,27,0.00
2004,07,05,06,28,0.00
2004,07,05,06,29,0.00
2004,07,05,06,30,0.00
2004,07,05,06,31,0.00
2004,07,05,06,32,0.00
2004,07,05,06,33,1.40
2004,07,05,06,34,1.40
2004,07,05,06,35,0.00
2004,07,05,06,36,1.40
2004,07,05,06,37,0.00
2004,07,05,06,38,0.00
2004,07,05,06,39,0.00
2004,07,05,06,40,1.40
2004,07,05,06,41,0.00
2004,07,05,06,42,0.00
2004,07,05,06,43,0.00
2004,07,05,06,44,0.00
2004,07,05,06,45,0.00
2004,07,05,06,46,0.00
2004,07,05,06,47,0.00
2004,07,05,06,48,0.00
2004,07,05,06,49,0.00
2004,07,05,06,50,0.00
2004,07,05,06,51,0.00
2004,07,05,06,52,0.00
2004,07,05,06,53,0.00
2004,07,05,06,54,0.00
2004,07,05,06,55,0.00
2004,07,05,06,56,0.00
2004,07,05,06,57,0.00
2004,07,05,06,58,0.00
2004,07,05,06,59,0.00
2004,07,05,07,00,1.40
2004,07,05,07,01,0.00
2004,07,05,07,02,1.40
2004,07,05,07,03,0.00
2004,07,05,07,04,0.00
2004,07,05,07,05,0.00
2004,07,05,07,06,0.00
2004,07,05,07,07,0.00
2004,07,05,07,08,0.00
2004,07,05,07,09,0.00
2004,07,05,07,10,0.00
2004,07,05,07,11,0.00
2004,07,05,07,12,0.00
2004,07,05,07,13,0.00
2004,07,05,07,14,1.40
2004,07,05,07,15,1.40
2004,07,05,07,16,0.00
2004,07,05,07,17,0.00
2004,07,05,07,18,0.00
2004,07,05,07,19,1.40
2004,07,05,07,20,0.00
2004,07,05,07,21,1.40
2004,07,05,07,22,1.40
2004,07,05,07,23,1.40
2004,07,05,07,24,0.00
2004,07,05,07,25,1.40
2004,07,05,07,26,1.40
2004,07,05,07,27,0.00
2004,07,05,07,28,0.00
2004,07,05,07,29,1.40
2004,07,05,07,30,1.40
2004,07,05,07,31,1.40
2004,07,05,07,32,3.20
2004,07,05,07,33,1.40
2004,07,05,07,34,0.00
2004,07,05,07,35,1.40
2004,07,05,07,36,0.00
2004,07,05,07,37,0.00
2004,07,05,07,38,1.40
2004,07,05,07,39,0.00
2004,07,05,07,40,3.20
2004,07,05,07,41,3.20
2004,07,05,07,42,3.20
2004,07,05,07,43,1.40
2004,07,05,07,44,3.20
2004,07,05,07,45,3.20
2004,07,05,07,46,3.20
2004,07,05,07,47,3.20
2004,07,05,07,48,3.20
2004,07,05,07,49,3.20
2004,07,05,07,50,3.20
2004,07,05,07,51,3.20
2004,07,05,07,52,3.20
2004,07,05,07,53,3.20
2004,07,05,07,54,3.20
2004,07,05,07,55,4.70
2004,07,05,07,56,4.70
2004,07,05,07,57,1.40
2004,07,05,07,58,3.20
2004,07,05,07,59,4.70
2004,07,05,08,00,4.70
2004,07,05,08,01,4.70
2004,07,05,08,02,4.70
2004,07,05,08,03,4.70
2004,07,05,08,04,4.70
2004,07,05,08,05,3.20
2004,07,05,08,06,3.20
2004,07,05,08,07,3.20
2004,07,05,08,08,3.20
2004,07,05,08,09,3.20
2004,07,05,08,10,1.40
2004,07,05,08,11,1.40
2004,07,05,08,12,3.20
2004,07,05,08,13,4.70
2004,07,05,08,14,3.20
2004,07,05,08,15,1.40
2004,07,05,08,16,4.70
2004,07,05,08,17,3.20
2004,07,05,08,18,4.70
2004,07,05,08,19,3.20
2004,07,05,08,20,4.70
2004,07,05,08,21,3.20
2004,07,05,08,22,3.20
2004,07,05,08,23,4.70
2004,07,05,08,24,4.70
2004,07,05,08,25,3.20
2004,07,05,08,26,4.70
2004,07,05,08,27,3.20
2004,07,05,08,28,1.40
2004,07,05,08,29,4.70
2004,07,05,08,30,4.70
2004,07,05,08,31,3.20
2004,07,05,08,32,7.90
2004,07,05,08,33,4.70
2004,07,05,08,34,4.70
2004,07,05,08,35,0.00
2004,07,05,08,36,4.70
2004,07,05,08,37,4.70
2004,07,05,08,38,4.70
2004,07,05,08,39,7.90
2004,07,05,08,40,4.70
2004,07,05,08,41,1.40
2004,07,05,08,42,1.40
2004,07,05,08,43,1.40
2004,07,05,08,44,1.40
2004,07,05,08,45,1.40
2004,07,05,08,46,1.40
2004,07,05,08,47,1.40
2004,07,05,08,48,3.20
2004,07,05,08,49,4.70
2004,07,05,08,50,7.90
2004,07,05,08,51,4.70
2004,07,05,08,52,7.90
2004,07,05,08,53,7.90
2004,07,05,08,54,7.90
2004,07,05,08,55,7.90
2004,07,05,08,56,7.90
2004,07,05,08,57,4.70
2004,07,05,08,58,7.90
2004,07,05,08,59,7.90
2004,07,05,09,00,7.90
2004,07,05,09,01,4.70
2004,07,05,09,02,3.20
2004,07,05,09,03,9.70
2004,07,05,09,04,7.90
2004,07,05,09,05,7.90
2004,07,05,09,06,9.70
2004,07,05,09,07,4.70
2004,07,05,09,08,9.70
2004,07,05,09,09,4.70
2004,07,05,09,10,4.70
2004,07,05,09,11,9.70
2004,07,05,09,12,9.70
2004,07,05,09,13,4.70
2004,07,05,09,14,9.70
2004,07,05,09,15,9.70
2004,07,05,09,16,7.90
2004,07,05,09,17,1.40
2004,07,05,09,18,1.40
2004,07,05,09,19,7.90
2004,07,05,09,20,11.20
2004,07,05,09,21,9.70
2004,07,05,09,22,7.90
2004,07,05,09,23,9.70
2004,07,05,09,24,9.70
2004,07,05,09,25,4.70
2004,07,05,09,26,9.70
2004,07,05,09,27,9.70
2004,07,05,09,28,9.70
2004,07,05,09,29,11.20
2004,07,05,09,30,13.00
2004,07,05,09,31,9.70
2004,07,05,09,32,11.20
2004,07,05,09,33,9.70
2004,07,05,09,34,11.20
2004,07,05,09,35,11.20
2004,07,05,09,36,9.70
2004,07,05,09,37,13.00
2004,07,05,09,38,13.00
2004,07,05,09,39,11.20
2004,07,05,09,40,11.20
2004,07,05,09,41,16.20
2004,07,05,09,42,11.20
2004,07,05,09,43,11.20
2004,07,05,09,44,9.70
2004,07,05,09,45,9.70
2004,07,05,09,46,9.70
2004,07,05,09,47,9.70
2004,07,05,09,48,7.90
2004,07,05,09,49,9.70
2004,07,05,09,50,7.90
2004,07,05,09,51,9.70
2004,07,05,09,52,9.70
2004,07,05,09,53,11.20
2004,07,05,09,54,7.90
2004,07,05,09,55,11.20
2004,07,05,09,56,9.70
2004,07,05,09,57,11.20
2004,07,05,09,58,9.70
2004,07,05,09,59,9.70
2004,07,05,10,00,7.90
2004,07,05,10,01,11.20
2004,07,05,10,02,11.20
2004,07,05,10,03,11.20
2004,07,05,10,04,7.90
2004,07,05,10,05,11.20
2004,07,05,10,06,9.70
2004,07,05,10,07,13.00
2004,07,05,10,08,11.20
2004,07,05,10,09,11.20
2004,07,05,10,10,11.20
2004,07,05,10,11,11.20
2004,07,05,10,12,11.20
2004,07,05,10,13,9.70
2004,07,05,10,14,13.00
2004,07,05,10,15,13.00
2004,07,05,10,16,11.20
2004,07,05,10,17,9.70
2004,07,05,10,18,11.20
2004,07,05,10,19,11.20
2004,07,05,10,20,7.90
2004,07,05,10,21,9.70
2004,07,05,10,22,9.70
2004,07,05,10,23,11.20
2004,07,05,10,24,9.70
2004,07,05,10,25,13.00
2004,07,05,10,26,11.20
2004,07,05,10,27,16.20
2004,07,05,10,28,11.20
2004,07,05,10,29,13.00
2004,07,05,10,30,13.00
2004,07,05,10,31,13.00
2004,07,05,10,32,16.20
2004,07,05,10,33,13.00
2004,07,05,10,34,13.00
2004,07,05,10,35,13.00
2004,07,05,10,36,16.20
2004,07,05,10,37,13.00
2004,07,05,10,38,13.00
2004,07,05,10,39,11.20
2004,07,05,10,40,13.00
2004,07,05,10,41,11.20
2004,07,05,10,42,11.20
2004,07,05,10,43,11.20
2004,07,05,10,44,9.70
2004,07,05,10,45,7.90
2004,07,05,10,46,16.20
2004,07,05,10,47,11.20
2004,07,05,10,48,13.00
2004,07,05,10,49,11.20
2004,07,05,10,50,13.00
2004,07,05,10,51,13.00
2004,07,05,10,52,13.00
2004,07,05,10,53,9.70
2004,07,05,10,54,13.00
2004,07,05,10,55,9.70
2004,07,05,10,56,16.20
2004,07,05,10,57,16.20
2004,07,05,10,58,13.00
2004,07,05,10,59,13.00
2004,07,05,11,00,16.20
2004,07,05,11,01,16.20
2004,07,05,11,02,13.00
2004,07,05,11,03,13.00
2004,07,05,11,04,11.20
2004,07,05,11,05,16.20
2004,07,05,11,06,11.20
2004,07,05,11,07,11.20
2004,07,05,11,08,13.00
2004,07,05,11,09,13.00
2004,07,05,11,10,13.00
2004,07,05,11,11,16.20
2004,07,05,11,12,16.20
2004,07,05,11,13,13.00
2004,07,05,11,14,16.20
2004,07,05,11,15,13.00
2004,07,05,11,16,13.00
2004,07,05,11,17,16.20
2004,07,05,11,18,13.00
2004,07,05,11,19,13.00
2004,07,05,11,20,13.00
2004,07,05,11,21,11.20
2004,07,05,11,22,11.20
2004,07,05,11,23,13.00
2004,07,05,11,24,17.60
2004,07,05,11,25,17.60
2004,07,05,11,26,17.60
2004,07,05,11,27,19.40
2004,07,05,11,28,19.40
2004,07,05,11,29,16.20
2004,07,05,11,30,17.60
2004,07,05,11,31,13.00
2004,07,05,11,32,16.20
2004,07,05,11,33,13.00
2004,07,05,11,34,16.20
2004,07,05,11,35,16.20
2004,07,05,11,36,16.20
2004,07,05,11,37,19.40
2004,07,05,11,38,17.60
2004,07,05,11,39,17.60
2004,07,05,11,40,13.00
2004,07,05,11,41,16.20
2004,07,05,11,42,16.20
2004,07,05,11,43,16.20
2004,07,05,11,44,9.70
2004,07,05,11,45,16.20
2004,07,05,11,46,16.20
2004,07,05,11,47,16.20
2004,07,05,11,48,16.20
2004,07,05,11,49,16.20
2004,07,05,11,50,17.60
2004,07,05,11,51,13.00
2004,07,05,11,52,16.20
2004,07,05,11,53,17.60
2004,07,05,11,54,19.40
2004,07,05,11,55,17.60
2004,07,05,11,56,20.90
2004,07,05,11,57,19.40
2004,07,05,11,58,11.20
2004,07,05,11,59,19.40
2004,07,05,12,00,17.60
2004,07,05,12,01,16.20
2004,07,05,12,02,19.40
2004,07,05,12,03,17.60
2004,07,05,12,04,17.60
2004,07,05,12,05,17.60
2004,07,05,12,06,20.90
2004,07,05,12,07,20.90
2004,07,05,12,08,17.60
2004,07,05,12,09,17.60
2004,07,05,12,10,19.40
2004,07,05,12,11,20.90
2004,07,05,12,12,17.60
2004,07,05,12,13,17.60
2004,07,05,12,14,16.20
2004,07,05,12,15,16.20
2004,07,05,12,16,16.20
2004,07,05,12,17,16.20
2004,07,05,12,18,17.60
2004,07,05,12,19,17.60
2004,07,05,12,20,13.00
2004,07,05,12,21,16.20
2004,07,05,12,22,17.60
2004,07,05,12,23,17.60
2004,07,05,12,24,19.40
2004,07,05,12,25,16.20
2004,07,05,12,26,19.40
2004,07,05,12,27,17.60
2004,07,05,12,28,13.00
2004,07,05,12,29,17.60
2004,07,05,12,30,19.40
2004,07,05,12,31,11.20
2004,07,05,12,32,17.60
2004,07,05,12,33,17.60
2004,07,05,12,34,17.60
2004,07,05,12,35,13.00
2004,07,05,12,36,16.20
2004,07,05,12,37,16.20
2004,07,05,12,38,19.40
2004,07,05,12,39,17.60
2004,07,05,12,40,17.60
2004,07,05,12,41,16.20
2004,07,05,12,42,16.20
2004,07,05,12,43,13.00
2004,07,05,12,44,13.00
2004,07,05,12,45,13.00
2004,07,05,12,46,13.00
2004,07,05,12,47,13.00
2004,07,05,12,48,7.90
2004,07,05,12,49,9.70
2004,07,05,12,50,9.70
2004,07,05,12,51,16.20
2004,07,05,12,52,13.00
2004,07,05,12,53,17.60
2004,07,05,12,54,17.60
2004,07,05,12,55,22.70
2004,07,05,12,56,17.60
2004,07,05,12,57,16.20
2004,07,05,12,58,16.20
2004,07,05,12,59,20.90
2004,07,05,13,00,17.60
2004,07,05,13,01,13.00
2004,07,05,13,02,17.60
2004,07,05,13,03,16.20
2004,07,05,13,04,11.20
2004,07,05,13,05,13.00
2004,07,05,13,06,22.70
2004,07,05,13,07,25.90
2004,07,05,13,08,13.00
2004,07,05,13,09,13.00
2004,07,05,13,10,17.60
2004,07,05,13,11,17.60
2004,07,05,13,12,17.60
2004,07,05,13,13,17.60
2004,07,05,13,14,13.00
2004,07,05,13,15,11.20
2004,07,05,13,16,16.20
2004,07,05,13,17,17.60
2004,07,05,13,18,16.20
2004,07,05,13,19,19.40
2004,07,05,13,20,9.70
2004,07,05,13,21,16.20
2004,07,05,13,22,11.20
2004,07,05,13,23,16.20
2004,07,05,13,24,16.20
2004,07,05,13,25,20.90
2004,07,05,13,26,17.60
2004,07,05,13,27,17.60
2004,07,05,13,28,13.00
2004,07,05,13,29,13.00
2004,07,05,13,30,17.60
2004,07,05,13,31,11.20
2004,07,05,13,32,17.60
2004,07,05,13,33,13.00
2004,07,05,13,34,17.60
2004,07,05,13,35,13.00
2004,07,05,13,36,17.60
2004,07,05,13,37,13.00
2004,07,05,13,38,16.20
2004,07,05,13,39,20.90
2004,07,05,13,40,20.90
2004,07,05,13,41,20.90
2004,07,05,13,42,20.90
2004,07,05,13,43,22.70
2004,07,05,13,44,19.40
2004,07,05,13,45,16.20
2004,07,05,13,46,13.00
2004,07,05,13,47,17.60
2004,07,05,13,48,20.90
2004,07,05,13,49,16.20
2004,07,05,13,50,16.20
2004,07,05,13,51,19.40
2004,07,05,13,52,27.40
2004,07,05,13,53,20.90
2004,07,05,13,54,20.90
2004,07,05,13,55,19.40
2004,07,05,13,56,17.60
2004,07,05,13,57,17.60
2004,07,05,13,58,17.60
2004,07,05,13,59,17.60
2004,07,05,14,00,16.20
2004,07,05,14,01,17.60
2004,07,05,14,02,16.20
2004,07,05,14,03,22.70
2004,07,05,14,04,17.60
2004,07,05,14,05,19.40
2004,07,05,14,06,13.00
2004,07,05,14,07,11.20
2004,07,05,14,08,7.90
2004,07,05,14,09,16.20
2004,07,05,14,10,11.20
2004,07,05,14,11,11.20
2004,07,05,14,12,16.20
2004,07,05,14,13,17.60
2004,07,05,14,14,17.60
2004,07,05,14,15,13.00
2004,07,05,14,16,13.00
2004,07,05,14,17,17.60
2004,07,05,14,18,16.20
2004,07,05,14,19,13.00
2004,07,05,14,20,11.20
2004,07,05,14,21,13.00
2004,07,05,14,22,11.20
2004,07,05,14,23,16.20
2004,07,05,14,24,11.20
2004,07,05,14,25,11.20
2004,07,05,14,26,11.20
2004,07,05,14,27,9.70
2004,07,05,14,28,13.00
2004,07,05,14,29,9.70
2004,07,05,14,30,17.60
2004,07,05,14,31,13.00
2004,07,05,14,32,17.60
2004,07,05,14,33,19.40
2004,07,05,14,34,13.00
2004,07,05,14,35,13.00
2004,07,05,14,36,9.70
2004,07,05,14,37,16.20
2004,07,05,14,38,13.00
2004,07,05,14,39,11.20
2004,07,05,14,40,13.00
2004,07,05,14,41,16.20
2004,07,05,14,42,13.00
2004,07,05,14,43,9.70
2004,07,05,14,44,19.40
2004,07,05,14,45,19.40
2004,07,05,14,46,19.40
2004,07,05,14,47,9.70
2004,07,05,14,48,13.00
2004,07,05,14,49,7.90
2004,07,05,14,50,7.90
2004,07,05,14,51,9.70
2004,07,05,14,52,4.70
2004,07,05,14,53,11.20
2004,07,05,14,54,7.90
2004,07,05,14,55,7.90
2004,07,05,14,56,11.20
2004,07,05,14,57,22.70
2004,07,05,14,58,20.90
2004,07,05,14,59,27.40
2004,07,05,15,00,17.60
2004,07,05,15,01,17.60
2004,07,05,15,02,22.70
2004,07,05,15,03,13.00
2004,07,05,15,04,16.20
2004,07,05,15,05,16.20
2004,07,05,15,06,17.60
2004,07,05,15,07,20.90
2004,07,05,15,08,11.20
2004,07,05,15,09,11.20
2004,07,05,15,10,19.40
2004,07,05,15,11,16.20
2004,07,05,15,12,20.90
2004,07,05,15,13,13.00
2004,07,05,15,14,19.40
2004,07,05,15,15,20.90
2004,07,05,15,16,17.60
2004,07,05,15,17,17.60
2004,07,05,15,18,22.70
2004,07,05,15,19,17.60
2004,07,05,15,20,19.40
2004,07,05,15,21,27.40
2004,07,05,15,22,20.90
2004,07,05,15,23,27.40
2004,07,05,15,24,25.90
2004,07,05,15,25,27.40
2004,07,05,15,26,13.00
2004,07,05,15,27,17.60
2004,07,05,15,28,11.20
2004,07,05,15,29,25.90
2004,07,05,15,30,17.60
2004,07,05,15,31,17.60
2004,07,05,15,32,17.60
2004,07,05,15,33,17.60
2004,07,05,15,34,22.70
2004,07,05,15,35,28.80
2004,07,05,15,36,28.80
2004,07,05,15,37,20.90
2004,07,05,15,38,20.90
2004,07,05,15,39,16.20
2004,07,05,15,40,13.00
2004,07,05,15,41,11.20
2004,07,05,15,42,11.20
2004,07,05,15,43,19.40
2004,07,05,15,44,20.90
2004,07,05,15,45,19.40
2004,07,05,15,46,19.40
2004,07,05,15,47,16.20
2004,07,05,15,48,16.20
2004,07,05,15,49,9.70
2004,07,05,15,50,17.60
2004,07,05,15,51,19.40
2004,07,05,15,52,16.20
2004,07,05,15,53,16.20
2004,07,05,15,54,22.70
2004,07,05,15,55,22.70
2004,07,05,15,56,27.40
2004,07,05,15,57,27.40
2004,07,05,15,58,17.60
2004,07,05,15,59,22.70
2004,07,05,16,00,13.00
2004,07,05,16,01,9.70
2004,07,05,16,02,16.20
2004,07,05,16,03,7.90
2004,07,05,16,04,22.70
2004,07,05,16,05,19.40
2004,07,05,16,06,16.20
2004,07,05,16,07,11.20
2004,07,05,16,08,16.20
2004,07,05,16,09,13.00
2004,07,05,16,10,17.60
2004,07,05,16,11,17.60
2004,07,05,16,12,22.70
2004,07,05,16,13,19.40
2004,07,05,16,14,11.20
2004,07,05,16,15,17.60
2004,07,05,16,16,16.20
2004,07,05,16,17,19.40
2004,07,05,16,18,20.90
2004,07,05,16,19,17.60
2004,07,05,16,20,19.40
2004,07,05,16,21,17.60
2004,07,05,16,22,25.90
2004,07,05,16,23,20.90
2004,07,05,16,24,19.40
2004,07,05,16,25,16.20
2004,07,05,16,26,11.20
2004,07,05,16,27,17.60
2004,07,05,16,28,25.90
2004,07,05,16,29,25.90
2004,07,05,16,30,22.70
2004,07,05,16,31,27.40
2004,07,05,16,32,19.40
2004,07,05,16,33,16.20
2004,07,05,16,34,22.70
2004,07,05,16,35,22.70
2004,07,05,16,36,19.40
2004,07,05,16,37,20.90
2004,07,05,16,38,13.00
2004,07,05,16,39,17.60
2004,07,05,16,40,25.90
2004,07,05,16,41,19.40
2004,07,05,16,42,13.00
2004,07,05,16,43,13.00
2004,07,05,16,44,20.90
2004,07,05,16,45,13.00
2004,07,05,16,46,19.40
2004,07,05,16,47,20.90
2004,07,05,16,48,20.90
2004,07,05,16,49,17.60
2004,07,05,16,50,17.60
2004,07,05,16,51,19.40
2004,07,05,16,52,27.40
2004,07,05,16,53,22.70
2004,07,05,16,54,25.90
2004,07,05,16,55,16.20
2004,07,05,16,56,17.60
2004,07,05,16,57,9.70
2004,07,05,16,58,19.40
2004,07,05,16,59,16.20
2004,07,05,17,00,16.20
2004,07,05,17,01,16.20
2004,07,05,17,02,11.20
2004,07,05,17,03,28.80
2004,07,05,17,04,16.20
2004,07,05,17,05,11.20
2004,07,05,17,06,16.20
2004,07,05,17,07,16.20
2004,07,05,17,08,22.70
2004,07,05,17,09,19.40
2004,07,05,17,10,19.40
2004,07,05,17,11,17.60
2004,07,05,17,12,7.90
2004,07,05,17,13,7.90
2004,07,05,17,14,11.20
2004,07,05,17,15,4.70
2004,07,05,17,16,4.70
2004,07,05,17,17,19.40
2004,07,05,17,18,16.20
2004,07,05,17,19,9.70
2004,07,05,17,20,17.60
2004,07,05,17,21,17.60
2004,07,05,17,22,7.90
2004,07,05,17,23,9.70
2004,07,05,17,24,19.40
2004,07,05,17,25,13.00
2004,07,05,17,26,17.60
2004,07,05,17,27,9.70
2004,07,05,17,28,13.00
2004,07,05,17,29,11.20
2004,07,05,17,30,13.00
2004,07,05,17,31,20.90
2004,07,05,17,32,16.20
2004,07,05,17,33,16.20
2004,07,05,17,34,16.20
2004,07,05,17,35,16.20
2004,07,05,17,36,16.20
2004,07,05,17,37,13.00
2004,07,05,17,38,22.70
2004,07,05,17,39,13.00
2004,07,05,17,40,17.60
2004,07,05,17,41,9.70
2004,07,05,17,42,11.20
2004,07,05,17,43,20.90
2004,07,05,17,44,19.40
2004,07,05,17,45,17.60
2004,07,05,17,46,17.60